Regional Weather Roundup
Issued by NWS

Home | Current Version | Previous Version | Graphics & Text | Print | Product List | Glossary Off
Versions: 1 2 3 4 5 6 7 8 9 10 11 12 13 14 15 16 17 18 19 20 21 22 23 24 25 26 27 28 29 30 31 32 33 34 35 36 37 38 39 40 41 42 43 44 45 46 47 48 49 50

000
ASUS43 KFSD 300502
RWRSD

WEATHER ROUNDUP FOR SOUTH DAKOTA
NATIONAL WEATHER SERVICE SIOUX FALLS SD
1200 AM CDT TUE AUG 30 2016

NOTE: "FAIR" INDICATES FEW OR NO CLOUDS BELOW 12,000 FEET WITH NO
SIGNIFICANT WEATHER AND/OR OBSTRUCTIONS TO VISIBILITY.


SDZ001>005-009-010-012>017-300600-
NORTHWEST AND NORTH CENTRAL SOUTH DAKOTA

CITY           SKY/WX    TMP DP  RH WIND       PRES   REMARKS
BUFFALO          N/A     63  49  60 E9        30.20S
FAITH            N/A     62  52  69 NE9       30.24S
MOBRIDGE       CLOUDY    65  55  70 NE10      30.20S
$$

SDZ012>016-024>037-041>051-057-063-072>074-300600-
SOUTHWEST AND SOUTH CENTRAL SOUTH DAKOTA

CITY           SKY/WX    TMP DP  RH WIND       PRES   REMARKS
RAPID CTY ARPT CLEAR     68  61  78 E6        30.26S
PIERRE         PTCLDY    71  61  70 NE16      30.17R
CUSTER         CLEAR     61  54  77 NE7       30.39F
ELLSWORTH AFB  CLEAR     70  61  72 E5        30.25S
PHILIP         PTCLDY    72  66  81 NE12      30.19R
PINE RIDGE     PTCLDY    63  60  90 CALM      30.25S
WINNER         FAIR      72  63  73 S7        30.18R
$$

SDZ004>011-016>023-039-040-300600-
NORTHEAST SOUTH DAKOTA

CITY           SKY/WX    TMP DP  RH WIND       PRES   REMARKS
ABERDEEN       CLOUDY    63  59  87 N7        30.20S
WATERTOWN      CLOUDY    70  66  87 CALM      30.21R
SISSETON         N/A     65  62  90 NW6       30.18R
$$

SDZ017-020-022-023-036>040-048>070-300600-
SOUTHEAST SOUTH DAKOTA

CITY           SKY/WX    TMP DP  RH WIND       PRES   REMARKS
SIOUX FALLS    CLOUDY    74  68  81 SW9       30.18F
HURON          MOCLDY    75  66  73 S8        30.15F
CHAMBERLAIN    PTCLDY    74  69  85 E5        30.17R
MITCHELL       CLOUDY    71  68  90 SE6       30.18R
YANKTON        CLOUDY    72  63  73 S9        30.16F
$$

ABBREVIATIONS USED IN REMARKS
   TC - TEMPERATURE IN CELSIUS
  WCI - WIND CHILL INDEX
   HX - HEAT INDEX
  VSB - VISIBILITY





USA.gov is the U.S. government's official web portal to all federal, state and local government web resources and services.